Погода в Пушкареве

Россия / Нижегородская область     57°16′06″N   43°15′16″E
темп.,
°C
ветер,
м/с
пор.,
м/с
влажн.,
%
обл.,
%
осадки,
мм/ч
давл.,
гПа
погр.,
м
25 мая, ср
ср2500:00+3ссз578978 0.0 1010314
03:00+2ссз46907 0.0 1011252
06:00+3ссз568544 0.0 1011329
09:00+6зсз567263 0.0 1011797
12:00+8сз7969100 0.1 10111261
15:00+5ссз5994100 1.4 1012737
18:00+7сз698898 0.5 1012835
21:00+6сз468892 0.7 1012304
26 мая, чт
чт2600:00+6з3487100 0.1 1011141
03:00+5зюз4786100 0.6 1011244
06:00+6зюз5783100 0.1 1010767
09:00+8зюз678090 0.4 1009886
12:00+8зюз567799 0.4 1009804
15:00+9зюз3568100 0.4 1009621
18:00+10юз126848 0.0 1007348
21:00+7юв4686100 0.0 1006132
27 мая, пт
пт2700:00+7вюв51085100 0.0 1003235
03:00+8вюв5888100 0.0 1001236
06:00+8в4989100 0.0 998335
09:00+9св51092100 0.6 997451
12:00+9св5894100 0.9 998472
15:00+9ссв3594100 1.6 1000383
18:00+11сз238876 0.1 1001248
21:00+10ююз3390100 0.1 100236
28 мая, сб
сб2800:00+9ююз4894100 0.0 1002146
03:00+9ю4894100 0.0 1002211
06:00+9ююв61295100 0.5 1000386
09:00+10ю111994100 6.1 9961011
12:00+10юз12198676 1.2 9981200
15:00+13юз1016680 1.6 10011016
18:00+12юз914714 0.1 1004822
21:00+11юз713745 0.2 1006566
29 мая, вс
вс2900:00+9ююз613803 0.0 1007432
03:00+8ююз6118838 0.0 1009310
06:00+9ююз71388100 0.1 1009477
09:00+10ююз611827 0.4 1010733
12:00+13зюз7106366 0.5 1011858
15:00+15зюз7105627 0.9 10111010
18:00+14юз48645 0.1 1012690
21:00+11ююз358433 0.3 101469